Back to catalog

XMM

AliveScienceHEO
NORAD 25989·PAYLOAD·🇪🇺 EU

Launched Dec 10, 1999 from Guiana Space Centre

Loading…

Next Passes (next 24 hours)

TLE

FreshSource: Space-Track

Epoch: Sep 16, 2026, 02:30 UTC

1 25989U 99066A   26259.10482038  .00000073  00000-0  00000-0 0  9993
2 25989  64.0056 281.8070 4648831  63.2758   0.1066  0.50126544 23462

Track XMM in real time with AllMySat

Download on the App Store